Regional Weather Roundup
Issued by NWS Little Rock, AR

Home | Current Version | Previous Version | Graphics & Text | Print | Product List | Glossary On
Versions: 1 2 3 4 5 6 7 8 9 10 11 12 13 14 15 16 17 18 19 20 21 22 23 24 25 26 27 28 29 30 31 32 33 34 35 36 37 38 39 40 41 42 43 44 45 46 47 48 49 50
000
ASUS44 KLZK 221812
RWRLZK

WEATHER ROUNDUP FOR ARKANSAS
NATIONAL WEATHER SERVICE LITTLE ROCK AR
100 PM CDT MON MAY 22 2017

NOTE: "FAIR" INDICATES FEW OR NO CLOUDS BELOW 12,000 FEET WITH NO
SIGNIFICANT WEATHER AND/OR OBSTRUCTIONS TO VISIBILITY.

ARZ001-003-010-029-221900-
NORTHWEST ARKANSAS

CITY           SKY/WX    TMP DP  RH WIND       PRES   REMARKS
FAYETTEVILLE   SUNNY     72  48  42 S8        30.07F
6HR MIN TEMP:  50; 6HR MAX TEMP:  72;

FORT SMITH     SUNNY     76  47  35 VRB5      30.05F
6HR MIN TEMP:  58; 6HR MAX TEMP:  76;

HARRISON       SUNNY     72  47  40 SE13      30.09F
6HR MIN TEMP:  51; 6HR MAX TEMP:  72;

BENTONVILLE    MOSUNNY   73  52  46 S5        30.08F
6HR MIN TEMP:  54; 6HR MAX TEMP:  73;

ROGERS         MOSUNNY   73  49  42 S9        30.08F
6HR MIN TEMP:  54; 6HR MAX TEMP:  73; 6HR PCP:  0.05;

SILOAM SPGS    MOSUNNY   73  48  40 S13       30.07F
6HR MIN TEMP:  52; 6HR MAX TEMP:  73;

HIGHFILL       MOSUNNY   74  49  41 S10       30.07
6HR MIN TEMP:  53; 6HR MAX TEMP:  74;

SPRINGDALE     MOSUNNY   72  48  43 SE7G14    30.09F
$$

ARZ004-005-016-221900-
NORTH CENTRAL ARKANSAS

CITY           SKY/WX    TMP DP  RH WIND       PRES   REMARKS
BATESVILLE     SUNNY     72  48  43 S6        30.10F
6HR MIN TEMP:  54; 6HR MAX TEMP:  73;

FLIPPIN        SUNNY     72  46  40 SE7       30.06F
6HR MIN TEMP:  52; 6HR MAX TEMP:  72;

MTN HOME       SUNNY     70  46  42 S8        30.09F
6HR MIN TEMP:  52; 6HR MAX TEMP:  71;

$$

ARZ040-041-221900-
WEST CENTRAL ARKANSAS

CITY           SKY/WX    TMP DP  RH WIND       PRES   REMARKS
MENA           SUNNY     75  50  41 NE5       30.07F
MOUNT IDA      SUNNY     74  45  35 E7        30.05F
6HR MIN TEMP:  56; 6HR MAX TEMP:  75;

$$

ARZ009-017-025-026-028-221900-
NORTHEAST ARKANSAS

CITY           SKY/WX    TMP DP  RH WIND       PRES   REMARKS
JONESBORO      SUNNY     73  46  38 E9        30.08F
6HR MIN TEMP:  58; 6HR MAX TEMP:  74;

NEWPORT        SUNNY     73  52  47 SE9       30.10S
6HR MIN TEMP:  59; 6HR MAX TEMP:  73;

WALNUT RIDGE   SUNNY     72  48  43 E6        30.10F
6HR MIN TEMP:  57; 6HR MAX TEMP:  72;

BLYTHEVILLE    CLOUDY    71  51  49 SE8       30.09F
6HR MIN TEMP:  61; 6HR MAX TEMP:  72;

NW BLYTHEVILLE PTSUNNY   72  46  40 SE9       30.08F
$$

ARZ022-023-033-042-044-221900-
CENTRAL ARKANSAS

CITY           SKY/WX    TMP DP  RH WIND       PRES   REMARKS
LITTLE ROCK    PTSUNNY   70  49  47 SE14      30.10F
6HR MIN TEMP:  60; 6HR MAX TEMP:  72;

N LITTLE ROCK    N/A     71  49  46 E9        30.09F
6HR MIN TEMP:  60; 6HR MAX TEMP:  73;

JACKSONVILLE   MOSUNNY   73  51  45 E7        30.09S
6HR MIN TEMP:  58; 6HR MAX TEMP:  74;

CONWAY           N/A     73  52  46 E8        30.07F
SEARCY         SUNNY     72  52  49 NE7       30.11F
6HR MIN TEMP:  57; 6HR MAX TEMP:  73;

HOT SPRINGS    MOSUNNY   73  49  42 E10       30.07F
6HR MIN TEMP:  59; 6HR MAX TEMP:  74;

RUSSELLVILLE   SUNNY     72  49  44 VRB3      30.08F
6HR MIN TEMP:  55; 6HR MAX TEMP:  73;

CLINTON        FAIR      73  45  35 E6        30.09F HAZE
$$

ARZ036-221900-
EAST ARKANSAS

CITY           SKY/WX    TMP DP  RH WIND       PRES   REMARKS
WEST MEMPHIS   CLOUDY    71  52  50 E8        30.07F
6HR MIN TEMP:  62; 6HR MAX TEMP:  72;

$$

ARZ050-053-066-070-073-221900-
SOUTHWEST ARKANSAS

CITY           SKY/WX    TMP DP  RH WIND       PRES   REMARKS
ARKADELPHIA      N/A     68  55  63 VRB6      30.07F
6HR MIN TEMP:  60; 6HR MAX TEMP:  68;

CAMDEN         CLOUDY    66  55  68 E6        30.07F
TEXARKANA      PTSUNNY   66  56  70 SE6       30.06F
6HR MIN TEMP:  62; 6HR MAX TEMP:  70; 6HR PCP:  0.02;

EL DORADO      LGT RAIN  62  60  93 E6        30.08S
6HR MIN TEMP:  61; 6HR MAX TEMP:  62; 6HR PCP:  0.09;

DE QUEEN       SUNNY     75  54  47 VRB7      30.04F
6HR MIN TEMP:  60; 6HR MAX TEMP:  76;

$$

ARZ056-057-069-221900-
SOUTHEAST ARKANSAS

CITY           SKY/WX    TMP DP  RH WIND       PRES   REMARKS
PINE BLUFF     LGT RAIN  66  56  70 E8        30.07F
6HR MIN TEMP:  60; 6HR MAX TEMP:  67; 6HR PCP: TRACE;

STUTTGART      CLOUDY    70  46  43 E8        30.10F
6HR MIN TEMP:  63; 6HR MAX TEMP:  70;

MONTICELLO     CLOUDY    64  60  87 VRB3      30.06F
6HR MIN TEMP:  61; 6HR MAX TEMP:  65; 6HR PCP: TRACE;


$$





USA.gov is the U.S. government's official web portal to all federal, state and local government web resources and services.